ANE50UC LEIB-LEPA

Flight info

Callsign ANE50UC
Flight time 0h 29m
Altitude 10000
Route LAMPA
Aircraft AT76/M-SDFGIRY/S

Departure

Time 2026-05-07 14:38
Airport Ibiza Airport (LEIB)

Arrival

Time 2026-05-07 15:07
Airport Palma de Mallorca Airport (LEPA)
Time Latitude Longitude Altitude Speed Heading
2026-05-07 14:13 38.87466 1.36664 5 ft 0 kts 17°
2026-05-07 14:34 38.87470 1.36669 5 ft 4 kts 42°
2026-05-07 14:35 38.87444 1.36701 5 ft 11 kts 159°
2026-05-07 14:35 38.87399 1.36705 5 ft 4 kts 225°
2026-05-07 14:35 38.87352 1.36593 5 ft 15 kts 242°
2026-05-07 14:35 38.87307 1.36497 5 ft 12 kts 221°
2026-05-07 14:36 38.87227 1.36465 5 ft 13 kts 194°
2026-05-07 14:36 38.87142 1.36439 4 ft 11 kts 193°
2026-05-07 14:36 38.87082 1.36367 5 ft 15 kts 242°
2026-05-07 14:36 38.87036 1.36257 4 ft 11 kts 242°
2026-05-07 14:37 38.87005 1.36203 4 ft 4 kts 184°
2026-05-07 14:37 38.86937 1.36248 3 ft 14 kts 151°
2026-05-07 14:37 38.86878 1.36326 2 ft 13 kts 84°
2026-05-07 14:38 38.87000 1.36625 4 ft 69 kts 62°
2026-05-07 14:38 38.87308 1.37371 35 ft 115 kts 64°
2026-05-07 14:38 38.87683 1.38293 542 ft 114 kts 64°
2026-05-07 14:38 38.87942 1.39243 1088 ft 113 kts 75°
2026-05-07 14:39 38.88126 1.40256 1385 ft 126 kts 77°
2026-05-07 14:39 38.88334 1.41422 1531 ft 147 kts 77°
2026-05-07 14:39 38.88579 1.42772 1723 ft 161 kts 77°
2026-05-07 14:39 38.88835 1.44196 2081 ft 165 kts 76°
2026-05-07 14:40 38.89112 1.45629 2492 ft 165 kts 77°
2026-05-07 14:40 38.89391 1.47062 2897 ft 166 kts 76°
2026-05-07 14:40 38.89690 1.48498 3309 ft 166 kts 75°
2026-05-07 14:40 38.90008 1.49936 3677 ft 169 kts 74°
2026-05-07 14:41 38.90322 1.51390 4057 ft 169 kts 75°
2026-05-07 14:41 38.90618 1.52856 4468 ft 170 kts 76°
2026-05-07 14:41 38.90900 1.54337 4869 ft 170 kts 79°
2026-05-07 14:41 38.90848 1.55856 5161 ft 174 kts 99°
2026-05-07 14:42 38.90647 1.57398 5510 ft 177 kts 98°
2026-05-07 14:42 38.90456 1.58956 5913 ft 176 kts 98°
2026-05-07 14:42 38.90280 1.60513 6298 ft 177 kts 97°
2026-05-07 14:42 38.90113 1.62078 6667 ft 177 kts 98°
2026-05-07 14:43 38.89955 1.63631 6988 ft 179 kts 97°
2026-05-07 14:43 38.89799 1.65220 7324 ft 181 kts 97°
2026-05-07 14:43 38.89778 1.66840 7630 ft 183 kts 75°
2026-05-07 14:43 38.90282 1.68338 7932 ft 185 kts 68°
2026-05-07 14:44 38.90817 1.69835 8270 ft 186 kts 68°
2026-05-07 14:44 38.91340 1.71362 8592 ft 188 kts 69°
2026-05-07 14:44 38.91854 1.72916 8903 ft 189 kts 70°
2026-05-07 14:44 38.92357 1.74482 9222 ft 190 kts 71°
2026-05-07 14:45 38.92852 1.76061 9555 ft 192 kts 71°
2026-05-07 14:45 38.93341 1.77677 9780 ft 198 kts 71°
2026-05-07 14:45 38.93842 1.79387 9852 ft 211 kts 72°
2026-05-07 14:45 38.94381 1.81194 9886 ft 223 kts 71°
2026-05-07 14:46 38.94959 1.83086 9903 ft 232 kts 71°
2026-05-07 14:46 38.95561 1.85052 9909 ft 240 kts 70°
2026-05-07 14:46 38.96187 1.87071 9911 ft 246 kts 71°
2026-05-07 14:46 38.96812 1.89104 9911 ft 250 kts 71°
2026-05-07 14:47 38.97463 1.91222 9908 ft 253 kts 71°
2026-05-07 14:47 38.98105 1.93306 9911 ft 255 kts 71°
2026-05-07 14:47 38.98760 1.95433 9908 ft 256 kts 71°
2026-05-07 14:47 38.99412 1.97572 9910 ft 257 kts 71°
2026-05-07 14:48 39.00070 1.99716 9909 ft 258 kts 71°
2026-05-07 14:48 39.00732 2.01865 9909 ft 259 kts 71°
2026-05-07 14:48 39.01389 2.04023 9916 ft 259 kts 71°
2026-05-07 14:48 39.02047 2.06184 9916 ft 260 kts 71°
2026-05-07 14:49 39.02715 2.08343 9912 ft 260 kts 71°
2026-05-07 14:49 39.03376 2.10504 9913 ft 260 kts 71°
2026-05-07 14:49 39.04031 2.12676 9918 ft 260 kts 71°
2026-05-07 14:49 39.04693 2.14843 9914 ft 261 kts 71°
2026-05-07 14:50 39.05354 2.17014 9917 ft 261 kts 71°
2026-05-07 14:50 39.06012 2.19189 9914 ft 261 kts 71°
2026-05-07 14:50 39.06679 2.21367 9914 ft 261 kts 71°
2026-05-07 14:50 39.07341 2.23546 9911 ft 261 kts 71°
2026-05-07 14:51 39.07998 2.25728 9909 ft 261 kts 71°
2026-05-07 14:51 39.08666 2.27903 9907 ft 261 kts 71°
2026-05-07 14:51 39.09341 2.30076 9903 ft 261 kts 71°
2026-05-07 14:51 39.09998 2.32222 9905 ft 261 kts 70°
2026-05-07 14:52 39.10661 2.34395 9915 ft 261 kts 71°
2026-05-07 14:52 39.11323 2.36566 9914 ft 260 kts 71°
2026-05-07 14:52 39.11975 2.38739 9913 ft 260 kts 71°
2026-05-07 14:52 39.12627 2.40921 9913 ft 260 kts 71°
2026-05-07 14:53 39.13283 2.43099 9914 ft 260 kts 71°
2026-05-07 14:53 39.13938 2.45277 9911 ft 260 kts 71°
2026-05-07 14:53 39.14369 2.46718 9913 ft 260 kts 71°
2026-05-07 14:53 39.15027 2.48889 9912 ft 260 kts 71°
2026-05-07 14:54 39.15903 2.51765 9908 ft 259 kts 69°
2026-05-07 14:54 39.16882 2.53719 9909 ft 260 kts 54°
2026-05-07 14:54 39.18044 2.55506 9912 ft 261 kts 52°
2026-05-07 14:54 39.18823 2.56690 9915 ft 261 kts 53°
2026-05-07 14:55 39.19971 2.58510 9918 ft 262 kts 54°
2026-05-07 14:55 39.21089 2.60371 9918 ft 263 kts 56°
2026-05-07 14:55 39.22199 2.62254 9926 ft 264 kts 56°
2026-05-07 14:55 39.23315 2.64145 9929 ft 266 kts 55°
2026-05-07 14:56 39.24445 2.66038 9936 ft 268 kts 55°
2026-05-07 14:56 39.25600 2.67988 9613 ft 278 kts 55°
2026-05-07 14:56 39.26729 2.69916 8719 ft 264 kts 56°
2026-05-07 14:56 39.27813 2.71773 7517 ft 261 kts 56°
2026-05-07 14:57 39.28901 2.73629 6369 ft 257 kts 55°
2026-05-07 14:57 39.29967 2.75454 5169 ft 252 kts 55°
2026-05-07 14:57 39.31019 2.77227 3994 ft 243 kts 54°
2026-05-07 14:57 39.32355 2.78400 3564 ft 230 kts 19°
2026-05-07 14:58 39.33899 2.78673 3492 ft 219 kts
2026-05-07 14:58 39.35404 2.78607 3415 ft 214 kts 358°
2026-05-07 14:58 39.36861 2.78271 3363 ft 212 kts 351°
2026-05-07 14:58 39.38289 2.77788 3310 ft 213 kts 348°
2026-05-07 14:59 39.39712 2.77251 3231 ft 212 kts 348°
2026-05-07 14:59 39.41119 2.76690 3151 ft 211 kts 342°
2026-05-07 14:59 39.42220 2.75431 3074 ft 220 kts 301°
2026-05-07 14:59 39.42668 2.73548 3022 ft 219 kts 280°
2026-05-07 15:00 39.42786 2.71591 3010 ft 217 kts 269°
2026-05-07 15:00 39.42661 2.69664 3003 ft 214 kts 261°
2026-05-07 15:00 39.42380 2.67754 2906 ft 218 kts 257°
2026-05-07 15:00 39.42042 2.65837 2821 ft 220 kts 257°
2026-05-07 15:01 39.41705 2.63924 2748 ft 222 kts 257°
2026-05-07 15:01 39.41369 2.61969 2655 ft 224 kts 258°
2026-05-07 15:01 39.41218 2.59987 2581 ft 221 kts 281°
2026-05-07 15:01 39.41882 2.58231 2466 ft 218 kts 310°
2026-05-07 15:02 39.42862 2.56836 2359 ft 197 kts 321°
2026-05-07 15:02 39.43887 2.55759 2274 ft 184 kts 329°
2026-05-07 15:02 39.44924 2.54898 2197 ft 169 kts 339°
2026-05-07 15:02 39.45995 2.54869 2120 ft 149 kts 31°
2026-05-07 15:03 39.46806 2.55637 2070 ft 142 kts 43°
2026-05-07 15:03 39.47516 2.56513 2007 ft 140 kts 50°
2026-05-07 15:03 39.48140 2.57450 1945 ft 138 kts 54°
2026-05-07 15:03 39.48710 2.58448 1888 ft 137 kts 56°
2026-05-07 15:04 39.49231 2.59480 1827 ft 137 kts 58°
2026-05-07 15:04 39.49731 2.60528 1770 ft 137 kts 59°
2026-05-07 15:04 39.50237 2.61574 1703 ft 139 kts 59°
2026-05-07 15:04 39.50769 2.62700 1368 ft 148 kts 60°
2026-05-07 15:05 39.51295 2.63833 1164 ft 142 kts 60°
2026-05-07 15:05 39.51793 2.64901 1010 ft 131 kts 60°
2026-05-07 15:05 39.52224 2.65810 849 ft 111 kts 60°
2026-05-07 15:05 39.52621 2.66639 726 ft 107 kts 60°
2026-05-07 15:06 39.53019 2.67455 607 ft 107 kts 62°
2026-05-07 15:06 39.53403 2.68255 487 ft 103 kts 60°
2026-05-07 15:06 39.53767 2.69052 358 ft 102 kts 62°
2026-05-07 15:06 39.54136 2.69817 262 ft 99 kts 62°
2026-05-07 15:07 39.54483 2.70581 173 ft 98 kts 63°
2026-05-07 15:07 39.54843 2.71339 48 ft 101 kts 62°
2026-05-07 15:07 39.55160 2.72006 35 ft 54 kts 58°
2026-05-07 15:07 39.55281 2.72262 35 ft 16 kts 59°
2026-05-07 15:08 39.55271 2.72343 35 ft 7 kts 135°
2026-05-07 15:08 39.55234 2.72371 35 ft 5 kts 148°
2026-05-07 15:08 39.55204 2.72395 35 ft 6 kts 147°
2026-05-07 15:08 39.55163 2.72450 35 ft 10 kts 92°
2026-05-07 15:09 39.55202 2.72542 35 ft 14 kts 58°
2026-05-07 15:09 39.55259 2.72663 35 ft 17 kts 59°
2026-05-07 15:09 39.55326 2.72806 35 ft 20 kts 59°
2026-05-07 15:09 39.55402 2.72966 35 ft 22 kts 59°
2026-05-07 15:10 39.55487 2.73145 35 ft 24 kts 58°
2026-05-07 15:10 39.55572 2.73326 35 ft 20 kts 59°
2026-05-07 15:10 39.55627 2.73455 35 ft 13 kts 84°
2026-05-07 15:10 39.55593 2.73523 35 ft 7 kts 147°
2026-05-07 15:11 39.55545 2.73560 35 ft 10 kts 148°
2026-05-07 15:11 39.55490 2.73598 35 ft 1 kts 186°
2026-05-07 15:11 39.55485 2.73596 35 ft 2 kts 197°
2026-05-07 15:11 39.55473 2.73583 35 ft 3 kts 236°
2026-05-07 15:12 39.55466 2.73506 35 ft 15 kts 257°
2026-05-07 15:12 39.55391 2.73468 35 ft 13 kts 150°
2026-05-07 15:12 39.55311 2.73532 35 ft 15 kts 147°
2026-05-07 15:12 39.55213 2.73609 35 ft 12 kts 149°
2026-05-07 15:13 39.55172 2.73637 35 ft 6 kts 160°
2026-05-07 15:13 39.55137 2.73608 35 ft 9 kts 239°
2026-05-07 15:13 39.55089 2.73506 35 ft 15 kts 238°
2026-05-07 15:13 39.55037 2.73385 35 ft 14 kts 253°
2026-05-07 15:14 39.55002 2.73325 35 ft 3 kts 186°
2026-05-07 15:14 39.54987 2.73323 35 ft 1 kts 186°
2026-05-07 15:14 39.54986 2.73323 35 ft 0 kts 185°